Montpelier, VT

9:34 PM EST on November 19, 2017 (GMT -0500)
Knapp State

Weather History for KMPV - July, 2013

Change the Weather History Date:

Tuesday, July 23, 2013

  Actual Average Record
Temperature  
Mean Temperature 69 °F 67 °F  
Max Temperature 75 °F 79 °F 92 °F (1952)
Min Temperature 62 °F 56 °F 41 °F (1981)
Degree Days  
Heating Degree Days 0 1  
Month to date heating degree days 29  
Since 1 June heating degree days 150  
Since 1 July heating degree days 29  
Cooling Degree Days 4 3  
Month to date cooling degree days 153 73  
Year to date cooling degree days 232 136  
Since 1 June cooling degree days 221 126  
Growing Degree Days 18 (Base 50)    
Moisture  
Dew Point 64 °F    
Average Humidity 87    
Maximum Humidity 100    
Minimum Humidity 73    
Precipitation  
Precipitation 1.23 in 0.15 in 1.57 in (1948)
Month to date precipitation 4.90 2.92  
Year to date precipitation 22.52 19.63  
Sea Level Pressure  
Sea Level Pressure 29.74 in    
Wind  
Wind Speed 1 mph (SSW)    
Max Wind Speed 9 mph    
Max Gust Speed 29 mph    
Visibility 6 miles    
Events Rain    
T = Trace of Precipitation, MM = Missing Value Source: NWS Daily Summary

Daily Weather History Graph

Daily Weather History Graph

Search for Another Location

Airport or City:

Trip Planner

Search our weather history database for the weather conditions in past years. The results will help you decide how hot, cold, wet, or windy it might be!

Date:

Astronomy

Jul. 23, 2013 Rise Set
Actual Time 5:28 AM EDT 8:24 PM EDT
Civil Twilight 4:54 AM EDT 8:58 PM EDT
Nautical Twilight 4:10 AM EDT 9:41 PM EDT
Astronomical Twilight 3:19 AM EDT 10:32 PM EDT
Moon 8:44 PM EDT (7/23) 6:38 AM EDT (7/23)
Length of Visible Light 16h 04m
Length of Day
14h 55m
Full, 99% of the Moon is Illuminated
Jul 23
Full
Jul 29
Last Quarter
Aug 6
New
Aug 14
First Quarter
Aug 20
Full

Hourly Weather History & Observations

Time (EDT) Temp. Dew Point Humidity Pressure Visibility Wind Dir Wind Speed Gust Speed Precip Events Conditions
12:13 AM 69.8 °F 64.4 °F 83% 29.93 in 10.0 mi South 9.2 mph - N/A   Mostly Cloudy
12:51 AM 69.1 °F 64.0 °F 84% 29.90 in 10.0 mi South 8.1 mph - N/A   Overcast
1:51 AM 66.9 °F 64.0 °F 90% 29.88 in 10.0 mi South 3.5 mph - 0.01 in Rain Light Rain
2:20 AM 66.2 °F 64.4 °F 94% 29.88 in 9.0 mi Calm Calm - 0.01 in Rain Light Rain
2:35 AM 66.2 °F 64.4 °F 94% 29.88 in 10.0 mi Calm Calm - 0.02 in Rain Light Rain
2:51 AM 66.0 °F 64.0 °F 93% 29.86 in 9.0 mi Calm Calm - 0.02 in Rain Light Rain
3:00 AM 64.4 °F 64.4 °F 100% 29.87 in 10.0 mi SSW 3.5 mph - 0.00 in Rain Light Rain
3:34 AM 64.4 °F 62.6 °F 94% 29.87 in 2.5 mi Calm Calm - 0.11 in Rain Heavy Rain
3:36 AM 64.4 °F 62.6 °F 94% 29.86 in 1.2 mi Calm Calm - 0.19 in Rain Heavy Rain
3:39 AM 64.4 °F 62.6 °F 94% 29.86 in 0.8 mi SW 3.5 mph - 0.28 in Rain Heavy Rain
3:51 AM 64.0 °F 63.0 °F 96% 29.85 in 1.2 mi Calm Calm - 0.45 in Rain Rain
3:53 AM 64.4 °F 62.6 °F 94% 29.86 in 1.8 mi Calm Calm - 0.01 in Rain Rain
3:55 AM 64.4 °F 62.6 °F 94% 29.86 in 2.5 mi Variable 3.5 mph - 0.02 in Rain Rain
4:12 AM 64.4 °F 62.6 °F 94% 29.85 in 3.0 mi South 3.5 mph - 0.13 in Rain Rain
4:51 AM 64.0 °F 63.0 °F 96% 29.82 in 6.0 mi Calm Calm - 0.21 in Rain Rain
5:51 AM 64.0 °F 63.0 °F 96% 29.81 in 9.0 mi Calm Calm - 0.06 in Rain Light Rain
6:39 AM 64.4 °F 62.6 °F 94% 29.81 in 7.0 mi Calm Calm - 0.02 in Rain Light Rain
6:51 AM 64.0 °F 63.0 °F 96% 29.79 in 4.0 mi Calm Calm - 0.03 in Rain Light Rain
7:02 AM 64.4 °F 62.6 °F 94% 29.80 in 4.0 mi Calm Calm - 0.01 in Rain Light Rain
7:47 AM 64.4 °F 62.6 °F 94% 29.79 in 4.0 mi Calm Calm - 0.07 in Rain Light Rain
7:51 AM 64.0 °F 63.0 °F 96% 29.78 in 3.0 mi Calm Calm - 0.08 in Rain Rain
8:51 AM 64.0 °F 63.0 °F 96% 29.77 in 3.0 mi Calm Calm - 0.08 in Rain Rain
9:16 AM 64.4 °F 64.4 °F 100% 29.76 in 4.0 mi Calm Calm - 0.03 in Rain Light Rain
9:23 AM 64.4 °F 64.4 °F 100% 29.76 in 4.0 mi Calm Calm - 0.04 in Rain Rain
9:51 AM 64.9 °F 64.0 °F 97% 29.73 in 4.0 mi Calm Calm - 0.10 in Rain Light Rain
10:01 AM 64.4 °F 64.4 °F 100% 29.73 in 4.0 mi Calm Calm - 0.01 in Rain Light Rain
10:51 AM 64.9 °F 64.0 °F 97% 29.71 in 4.0 mi Calm Calm - 0.06 in Rain Light Rain
11:32 AM 64.4 °F 64.4 °F 100% 29.71 in 2.5 mi Calm Calm - 0.07 in Rain Rain
11:39 AM 64.4 °F 64.4 °F 100% 29.70 in 4.0 mi Calm Calm - 0.07 in Rain Light Rain
11:51 AM 66.0 °F 64.9 °F 96% 29.70 in 5.0 mi Calm Calm - 0.08 in Rain Light Rain
12:51 PM 66.9 °F 64.9 °F 93% 29.68 in 10.0 mi North 3.5 mph - 0.02 in   Overcast
1:51 PM 66.9 °F 66.0 °F 97% 29.67 in 10.0 mi WNW 5.8 mph - N/A   Overcast
2:02 PM 68.0 °F 64.4 °F 88% 29.67 in 10.0 mi NW 4.6 mph - N/A   Overcast
2:26 PM 69.8 °F 64.4 °F 83% 29.67 in 10.0 mi Calm Calm - N/A   Overcast
2:51 PM 71.1 °F 66.0 °F 84% 29.65 in 10.0 mi Calm Calm - N/A   Overcast
3:01 PM 73.4 °F 66.2 °F 78% 29.66 in 10.0 mi Calm Calm - N/A   Mostly Cloudy
3:14 PM 71.6 °F 66.2 °F 83% 29.66 in 10.0 mi NNW 3.5 mph - N/A   Mostly Cloudy
3:37 PM 73.4 °F 66.2 °F 78% 29.65 in 10.0 mi Variable 3.5 mph - N/A   Scattered Clouds
3:51 PM 72.0 °F 64.0 °F 76% 29.64 in 10.0 mi Calm Calm - N/A   Scattered Clouds
4:51 PM 70.0 °F 66.9 °F 90% 29.64 in 10.0 mi Calm Calm - 0.02 in   Overcast
5:51 PM 73.9 °F 64.9 °F 73% 29.62 in 10.0 mi Calm Calm - N/A   Scattered Clouds
6:51 PM 73.0 °F 66.9 °F 81% 29.62 in 10.0 mi Calm Calm - N/A   Partly Cloudy
7:51 PM 72.0 °F 66.0 °F 81% 29.61 in 10.0 mi South 3.5 mph - N/A   Clear
8:51 PM 66.0 °F 64.9 °F 96% 29.63 in 10.0 mi Calm Calm - N/A   Clear
9:51 PM 66.0 °F 64.9 °F 96% 29.64 in 10.0 mi Calm Calm - N/A   Mostly Cloudy
10:51 PM 64.9 °F 64.0 °F 97% 29.63 in 9.0 mi Calm Calm - N/A   Clear
10:55 PM 64.4 °F 62.6 °F 94% 29.64 in 1.8 mi South 3.5 mph - N/A   Partly Cloudy
10:57 PM 62.6 °F 62.6 °F 100% 29.64 in 1.0 mi South 3.5 mph - N/A   Mist
11:04 PM 62.6 °F 62.6 °F 100% 29.64 in 0.8 mi South 4.6 mph - N/A   Mist
11:07 PM 62.6 °F 62.6 °F 100% 29.64 in 1.2 mi South 4.6 mph - N/A   Partly Cloudy
11:09 PM 62.6 °F 62.6 °F 100% 29.64 in 2.5 mi South 3.5 mph - N/A   Partly Cloudy
11:16 PM 64.4 °F 64.4 °F 100% 29.64 in 10.0 mi Calm Calm - N/A   Partly Cloudy
11:45 PM 62.6 °F 62.6 °F 100% 29.64 in 1.8 mi NW 3.5 mph - N/A   Partly Cloudy
11:51 PM 63.0 °F 63.0 °F 100% 29.64 in 1.8 mi Calm Calm - N/A   Partly Cloudy
11:54 PM 62.6 °F 62.6 °F 100% 29.64 in 4.0 mi Calm Calm - N/A   Partly Cloudy